Regional Weather Roundup
Issued by NWS

Home | Current Version | Previous Version | Graphics & Text | Print | Product List | Glossary On
Versions: 1 2 3 4 5 6 7 8 9 10 11 12 13 14 15 16 17 18 19 20 21 22 23 24 25 26 27 28 29 30 31 32 33 34 35 36 37 38 39 40 41 42 43 44 45 46 47 48 49 50
000
ASUS43 KIND 040959
RWRIN

WEATHER ROUNDUP FOR INDIANA
NATIONAL WEATHER SERVICE INDIANAPOLIS IN
600 AM EDT SAT JUL 04 2015

NOTE: "FAIR" INDICATES FEW OR NO CLOUDS BELOW 12,000 FEET WITH NO
SIGNIFICANT WEATHER AND/OR OBSTRUCTIONS TO VISIBILITY.

* - STATION DOES NOT REPORT WEATHER SUCH AS PRECIPITATION OR FOG.

+ - STATION NOT QUALITY CONTROLLED BY THE NATIONAL WEATHER SERVICE.
    USE DATA WITH CAUTION...ESPECIALLY DEWPOINT AND RELATIVE
    HUMIDITY OBSERVATIONS.

INZ001>003-010>013-019-020-041100-
NORTHWEST INDIANA

CITY           SKY/WX    TMP DP  RH WIND       PRES   REMARKS
GARY /AIRPORT/ CLEAR    N/A N/A N/A CALM      29.97R
KNOX *+          N/A     52  52 100 CALM      29.96R VSB 1/2
MONTICELLO +   CLEAR     56  56 100 CALM      29.95R FOG
RENSSELAER +   CLEAR     57  57 100 NW3       29.96S

$$

LMZ046-743>745-041100-
SOUTHERN LAKE MICHIGAN

STATION/POSITION TIME  TEMP    WIND        PRES    WAVE
                       AIR SEA DIR/SP/G            HT
                 (UTC) (F)     (DEG/KT/KT) (MB)    (FT)
BURNS HARBOR     0900   62     200/  4/  5 1015.2R
MICHIGAN CITY    0900   59     170/  3/  3   N/A
5NW MICH CITY    0900   62 63  220/  4/  4   N/A     0

$$

INZ004-005-014>016-021>024-041100-
NORTH CENTRAL INDIANA

CITY           SKY/WX    TMP DP  RH WIND       PRES   REMARKS
GOSHEN         CLEAR     54  52  93 CALM      29.95S FOG
SOUTH BEND     CLEAR     55  52  89 CALM      29.97R
WARSAW +       FOG       54  54 100 CALM      29.96R VSB 1/4

$$

INZ006>009-017-018-025>027-041100-
NORTHEAST INDIANA

CITY           SKY/WX    TMP DP  RH WIND       PRES   REMARKS
ANGOLA *+        N/A     54  39  58 CALM      29.96R
FORT WAYNE     CLEAR     57  55  93 CALM      29.96R

$$

INZ028-029-035-036-043>045-051>053-041100-
WEST CENTRAL INDIANA

CITY           SKY/WX    TMP DP  RH WIND       PRES   REMARKS
CRAWFORDSVL +  FOG       55  55  99 CALM      29.96R VSB 1/2
GREENCASTLE +  CLEAR     61  57  88 CALM      29.96S FOG
LAFAYETTE      CLEAR     56  55  97 CALM      29.95S FOG
TERRE HAUTE    CLEAR     63  61  93 CALM      29.95R FOG

$$

INZ030>032-037>040-046>048-054>057-064-065-041100-
CENTRAL INDIANA

CITY           SKY/WX    TMP DP  RH WIND       PRES   REMARKS
FRANKFORT +    FOG      N/A N/A N/A CALM      29.97R VSB 1/4
GREENWOOD *+   PTCLDY    64  61  88 CALM      29.96R
INDIANAPOLIS   PTCLDY    63  60  90 CALM      29.93S
-EAGLE CREEK   CLEAR     63  60  90 CALM      29.95R
KOKOMO *+      MOCLDY    57  54  88 CALM      29.96R VSB 3/4
MT COMFORT *+  PTCLDY    61 N/A N/A CALM      29.96R
SHELBYVILLE    MOCLDY    66  63  90 N5        29.94R

$$

INZ033-034-041-042-049-050-058-059-041100-
EAST CENTRAL INDIANA

CITY           SKY/WX    TMP DP  RH WIND       PRES   REMARKS
MUNCIE         CLEAR     59  58  96 CALM      29.95S FOG

$$

INZ060-061-067>069-081>083-085>088-041100-
SOUTHWEST INDIANA

CITY           SKY/WX    TMP DP  RH WIND       PRES   REMARKS
EVANSVILLE     CLEAR     67  65  93 NE5       29.93R FOG
HUNTINGBURG *+ CLEAR     64  63  94 CALM      29.94R

$$

INZ062-063-066-070>080-084-089>092-041100-
SOUTH CENTRAL AND SOUTHEAST INDIANA

CITY           SKY/WX    TMP DP  RH WIND       PRES   REMARKS
BLOOMINGTON    CLOUDY    67  65  93 CALM      29.94S FOG
MADISON *+     CLOUDY    64  63  94 CALM      29.96R
SEYMOUR +      FOG       63  63 100 CALM      29.94R VSB 3/4

$$



USA.gov is the U.S. government's official web portal to all federal, state and local government web resources and services.